Find Starlink 32432

NORAD ID: 61257 Int'l Des: 2024-175 Owner: SPXS Country: US Constellation: starlink operational
LEOCIRCULAR

現在のビュー

3D地球を読み込み中...

About Starlink 32432

Starlink 32432 (NORAD 61257) is a starlink constellation satellite (v2 mini) launched Sep 25, 2024 by SPXS of US. It operates in LEO, CIRCULAR orbit with a mass of 730.00 kg.

次回通過

Passes for default location (London). Set your location on the main map for personalized predictions.

高度履歴

Loading altitude history...

軌道要素

1 61257U 24175Q 26264.31410850 -.00001663 00000-0 -38131-4 0 9990
2 61257 53.1603 1.9074 0000912 84.5910 275.5197 15.34378529111456
Epoch: Sep 21, 2026 • Age: 8 hours

現在のステータス

高度 463.1 km
遠地点 / 近地点 N/A
速度 7.64 km/s
衛星直下点 4.93°N, 132.82°E
打ち上げ日 Sep 25, 2024
運用期間 1.9 years
タイプ internet

技術仕様

分類 Payload
質量 730.00 kg
乾燥質量 700.00 kg
長さ 0.30 m
スパン 29.00 m
形状 ? Box + pan
製造者 SPXS
バスタイプ Starlink V2M
フェーズステータス In Orbit
所有者/国 SPXS/US

Most Searched